| time (UTC) | temp F | wind direction | speed knots | gust knots | rain 1hr in | rain 24hr in | rain mn in | humidity % | barometer mb |
| 20260505031002 | 49 | 240 | 7.0 | 13.0 | 0.00 | 0.00 | 0.00 | 81 | 1006.7 |
| 20260505030003 | 50 | 250 | 6.1 | 11.3 | 0.00 | 0.00 | 0.00 | 81 | 1006.8 |
| 20260505025002 | 50 | 257 | 7.0 | 13.9 | 0.00 | 0.00 | 0.00 | 80 | 1006.7 |
| 20260505024003 | 50 | 250 | 7.0 | 14.8 | 0.00 | 0.00 | 0.00 | 80 | 1006.7 |
| 20260505023003 | 50 | 256 | 8.7 | 16.5 | 0.00 | 0.00 | 0.00 | 80 | 1006.6 |
| 20260505022002 | 51 | 256 | 10.4 | 19.1 | 0.00 | 0.00 | 0.00 | 80 | 1006.6 |
| 20260505021003 | 51 | 252 | 11.3 | 17.4 | 0.00 | 0.00 | 0.00 | 80 | 1006.6 |
| 20260505020045 | 50 | 255 | 9.6 | 14.8 | 0.00 | 0.00 | 0.00 | 81 | 1006.6 |
| 20260505015023 | 50 | 250 | 8.7 | 13.9 | 0.00 | 0.00 | 0.00 | 82 | 1006.5 |
| 20260505014003 | 49 | 254 | 9.6 | 14.8 | 0.00 | 0.00 | 0.00 | 83 | 1006.5 |
| 20260505013002 | 49 | 247 | 7.0 | 13.0 | 0.00 | 0.00 | 0.00 | 83 | 1006.4 |
| 20260505012003 | 49 | 247 | 7.0 | 12.2 | 0.00 | 0.00 | 0.00 | 83 | 1006.3 |
| 20260505011024 | 49 | 250 | 7.8 | 13.9 | 0.00 | 0.00 | 0.00 | 83 | 1006.3 |
| 20260505010002 | 48 | 253 | 6.1 | 11.3 | 0.00 | 0.00 | 0.00 | 83 | 1006.3 |
| 20260505005024 | 48 | 249 | 5.2 | 8.7 | 0.00 | 0.00 | 0.00 | 84 | 1006.1 |
| 20260505004003 | 48 | 235 | 6.1 | 11.3 | 0.00 | 0.00 | 0.00 | 84 | 1005.8 |
| 20260505003002 | 47 | 230 | 6.1 | 10.4 | 0.00 | 0.00 | 0.00 | 84 | 1005.8 |
| 20260505002003 | 47 | 231 | 6.1 | 8.7 | 0.00 | 0.00 | 0.00 | 84 | 1005.7 |
| 20260505001003 | 48 | 247 | 3.5 | 7.0 | 0.00 | 0.00 | 0.00 | 84 | 1005.7 |
| 20260505000003 | 47 | 231 | 5.2 | 8.7 | 0.00 | 0.00 | 0.00 | 84 | 1005.6 |
| 20260504235003 | 47 | 241 | 3.5 | 8.7 | 0.00 | 0.00 | 0.00 | 83 | 1005.5 |
| 20260504234023 | 48 | 205 | 8.7 | 9.6 | 0.00 | 0.00 | 0.00 | 83 | 1005.3 |
| 20260504233003 | 48 | 208 | 7.0 | 8.7 | 0.00 | 0.00 | 0.00 | 81 | 1005.2 |
| 20260504232002 | 49 | 217 | 3.5 | 7.0 | 0.00 | 0.00 | 0.00 | 81 | 1005.3 |
| 20260504231003 | 49 | 205 | 3.5 | 7.0 | 0.00 | 0.00 | 0.00 | 81 | 1005.2 |
| 20260504230003 | 49 | 200 | 3.5 | 8.7 | 0.00 | 0.00 | 0.00 | 82 | 1004.9 |
| 20260504225002 | 49 | 195 | 7.0 | 9.6 | 0.00 | 0.00 | 0.00 | 81 | 1004.9 |
| 20260504224003 | 49 | 208 | 7.0 | 8.7 | 0.00 | 0.00 | 0.00 | 81 | 1004.7 |
| 20260504223002 | 49 | 216 | 4.3 | 7.8 | 0.00 | 0.00 | 0.00 | 80 | 1004.7 |
| 20260504222003 | 50 | 216 | 3.5 | 7.8 | 0.00 | 0.00 | 0.00 | 80 | 1004.7 |
| 20260504221003 | 50 | 209 | 5.2 | 8.7 | 0.00 | 0.00 | 0.00 | 79 | 1004.9 |
| 20260504220003 | 50 | 211 | 2.6 | 7.8 | 0.00 | 0.00 | 0.00 | 78 | 1004.8 |
| 20260504215003 | 51 | 195 | 7.0 | 9.6 | 0.00 | 0.00 | 0.00 | 77 | 1004.7 |
| 20260504214002 | 51 | 207 | 6.1 | 8.7 | 0.00 | 0.00 | 0.00 | 78 | 1004.8 |
| 20260504213003 | 51 | 192 | 7.0 | 9.6 | 0.00 | 0.00 | 0.00 | 77 | 1004.7 |
| 20260504212003 | 53 | 194 | 5.2 | 6.1 | 0.00 | 0.00 | 0.00 | 76 | 1004.8 |
| 20260504211002 | 52 | 198 | 4.3 | 7.8 | 0.00 | 0.00 | 0.00 | 77 | 1004.7 |
| 20260504210003 | 52 | 219 | 3.5 | 8.7 | 0.00 | 0.00 | 0.00 | 76 | 1004.6 |
| 20260504205003 | 53 | 217 | 2.6 | 8.7 | 0.00 | 0.00 | 0.00 | 77 | 1004.5 |
| 20260504204003 | 53 | 207 | 5.2 | 7.8 | 0.00 | 0.00 | 0.00 | 75 | 1004.4 |
| 20260504203003 | 54 | 234 | 2.6 | 7.0 | 0.00 | 0.00 | 0.00 | 77 | 1004.4 |
| 20260504202003 | 53 | 237 | 2.6 | 6.1 | 0.00 | 0.00 | 0.00 | 77 | 1004.5 |
| 20260504201003 | 53 | 227 | 4.3 | 6.1 | 0.00 | 0.00 | 0.00 | 78 | 1004.6 |
| 20260504200002 | 52 | 237 | 2.6 | 3.5 | 0.00 | 0.00 | 0.00 | 77 | 1004.4 |
| 20260504195003 | 52 | 240 | 1.7 | 5.2 | 0.00 | 0.00 | 0.00 | 76 | 1004.4 |
| 20260504194003 | 53 | 249 | 2.6 | 10.4 | 0.00 | 0.00 | 0.00 | 75 | 1004.5 |
| 20260504193002 | 53 | 252 | 6.1 | 12.2 | 0.00 | 0.00 | 0.00 | 76 | 1004.5 |
| 20260504192002 | 51 | 261 | 7.8 | 12.2 | 0.00 | 0.00 | 0.00 | 78 | 1004.7 |
| 20260504191003 | 50 | 265 | 7.8 | 11.3 | 0.00 | 0.00 | 0.00 | 78 | 1004.7 |
| 20260504190003 | 50 | 273 | 9.6 | 12.2 | 0.00 | 0.00 | 0.00 | 76 | 1004.7 |
| 20260504185002 | 51 | 247 | 6.1 | 11.3 | 0.00 | 0.00 | 0.00 | 74 | 1004.7 |
| 20260504184003 | 52 | 249 | 6.1 | 14.8 | 0.00 | 0.00 | 0.00 | 73 | 1004.6 |
| 20260504183002 | 53 | 266 | 9.6 | 14.8 | 0.00 | 0.00 | 0.00 | 73 | 1004.6 |
| 20260504182003 | 52 | 212 | 11.3 | 18.2 | 0.00 | 0.00 | 0.00 | 74 | 1004.6 |
| 20260504181003 | 50 | 257 | 12.2 | 16.5 | 0.00 | 0.00 | 0.00 | 78 | 1004.6 |
| 20260504180003 | 50 | 238 | 7.8 | 13.9 | 0.00 | 0.01 | 0.00 | 79 | 1004.6 |
| 20260504175045 | 50 | 225 | 7.8 | 12.2 | 0.00 | 0.01 | 0.00 | 80 | 1004.4 |
| 20260504174003 | 50 | 213 | 9.6 | 14.8 | 0.00 | 0.02 | 0.00 | 79 | 1004.3 |
| 20260504173002 | 51 | 211 | 12.2 | 17.4 | 0.00 | 0.03 | 0.00 | 78 | 1004.4 |
| 20260504172003 | 51 | 211 | 13.0 | 19.1 | 0.00 | 0.03 | 0.00 | 77 | 1004.4 |
| 20260504171002 | 51 | 209 | 15.6 | 18.2 | 0.00 | 0.03 | 0.00 | 78 | 1004.3 |
| 20260504151002 | 49 | 210 | 8.7 | 13.9 | 0.00 | 0.07 | 0.00 | 81 | 1005.6 |
| 20260504081003 | 43 | 262 | 7.0 | 13.0 | 0.00 | 0.30 | 0.00 | 73 | 1006.6 |
| 20260504050024 | 43 | 266 | 7.0 | 11.3 | 0.00 | 0.38 | 0.00 | 71 | 1006.2 |
| 20260504045003 | 44 | 270 | 7.8 | 10.4 | 0.00 | 0.38 | 0.00 | 71 | 1006.1 |
| 20260504044003 | 43 | 265 | 7.0 | 10.4 | 0.00 | 0.38 | 0.00 | 71 | 1006.3 |
| 20260504043023 | 44 | 264 | 6.1 | 9.6 | 0.00 | 0.38 | 0.00 | 70 | 1006.4 |
| 20260504042003 | 44 | 264 | 7.0 | 10.4 | 0.00 | 0.38 | 0.00 | 70 | 1006.4 |
| 20260504041002 | 44 | 265 | 7.0 | 8.7 | 0.00 | 0.38 | 0.00 | 68 | 1006.3 |
| 20260504040003 | 44 | 269 | 7.8 | 10.4 | 0.00 | 0.38 | 0.38 | 67 | 1006.2 |
| 20260504035003 | 44 | 266 | 7.8 | 10.4 | 0.00 | 0.38 | 0.38 | 66 | 1006.1 |
| 20260504034003 | 45 | 271 | 8.7 | 12.2 | 0.00 | 0.38 | 0.38 | 65 | 1006.1 |
| 20260504033002 | 45 | 272 | 7.0 | 12.2 | 0.00 | 0.38 | 0.38 | 65 | 1006.0 |
| 20260504032003 | 45 | 272 | 8.7 | 13.0 | 0.00 | 0.38 | 0.38 | 64 | 1005.9 |